141  
ASUS43 KGRB 240711  
RWRGRB  
 
NORTH-CENTRAL AND NORTHEAST WISCONSIN REGIONAL WEATHER ROUNDUP  
NATIONAL WEATHER SERVICE GREEN BAY WI  
200 AM CDT SUN MAR 24 2019  
 
WIZ005-009-010>012-018-019-240800-  
NORTH CENTRAL WISCONSIN  
 
CITY SKY/WX TMP DP RH WIND PRES REMARKS
 
IRONWOOD FAIR 35 24 64 SW8 30.07S  
MANITOWISH WTR NOT AVBL  
ARBOR VITAE FAIR 37 27 69 NW5 30.08R  
EAGLE RIVER FAIR 27 19 71 CALM 30.07R  
LAND O LAKES NOT AVBL  
RHINELANDER FAIR 30 21 69 W5 30.07S  
PHILLIPS FAIR 25 21 83 CALM 30.08S  
ANTIGO FAIR 31 23 72 W7 30.08S  
TOMAHAWK FAIR 24 19 81 CALM 30.09S  
MERRILL FAIR 24 22 94 CALM 30.11S  

 
 
WIZ013-073-240800-  
NORTHEAST WISCONSIN  
 
CITY SKY/WX TMP DP RH WIND PRES REMARKS
 
IRON MOUNTAIN FAIR 38 22 52 W6 30.03S  
MARINETTE FAIR 37 26 64 W6 30.09S  
OCONTO FAIR 37 28 72 SW5 30.09S  

 
 
WIZ017-030-035>037-045-240800-  
CENTRAL WISCONSIN  
 
CITY SKY/WX TMP DP RH WIND PRES REMARKS
 
MEDFORD FAIR 35 23 63 SW5 30.10S  
WAUSAU FAIR 28 24 85 CALM 30.09S  
MOSINEE FAIR 30 27 86 SW3 30.12R  
MARSHFIELD FAIR 36 27 69 SW5 30.10S  
WISC RAPIDS FAIR 34 25 69 SW3 30.13S  
STEVENS POINT FAIR 35 27 72 SW3 30.13S  
WAUPACA FAIR 37 28 71 CALM 30.13S  
SHAWANO FAIR 32 24 71 CALM 30.11R  
CLINTONVILLE FAIR 36 28 71 CALM 30.12R  
WAUTOMA NOT AVBL  

 
 
WIZ038-039-048-051-240800-  
FOX VALLEY  
 
CITY SKY/WX TMP DP RH WIND PRES REMARKS
 
NWS GREEN BAY FAIR 40 30 67 SW7 30.12R  
APPLETON FAIR 37 28 70 SW8 30.11S  
OSHKOSH FAIR 39 30 70 SW8 30.13S  
FOND DU LAC FAIR 38 30 73 SW8 30.14F  

 
 
WIZ022-050-052-240800-  
EAST CENTRAL WISCONSIN  
 
CITY SKY/WX TMP DP RH WIND PRES REMARKS
 
EPHRAIM FAIR 37 29 72 W10G16 30.07S  
WASHINGTON ISL FAIR 35 29 79 SW12 30.06S  
STURGEON BAY FAIR 40 30 67 SW12 30.10S  
MANITOWOC FAIR 36 35 96 SW6 30.14S  
SHEBOYGAN FAIR 35 29 78 SW9 30.14F  

 
 
LMZ563-521-522-541>543-240800-  
LAKESHORE  
 
STATION/POSITION TIME TEMP WIND PRES VSBY WAVE
 
AIR SEA DIR/SP/G HT/PER  
(UTC) (F) (DEG/KT/KT) (MB) (MI) (FT/S)  
SHEBOYGAN LKSHOR 0700 39 220/ 10/ 11 1021.2F  
KEWAUNEE LKSHORE 0648 38 220/ 7/ 10 1019.0R  
NORTHPORT PIER 0640 39 CALM / 5 1017.9S  
MENOMINEE LKSHOR 0648 39 35 220/ 7/ 10 1018.4R  

 
 
 
CLICK HERE TO GO TO PREVIOUS BULLETINS.

The Nexlab WI Page Main Text Page